Lapse_Rate
7.1 6.5 6.5 6.5 6.5 6.5 6.5 6.5 6.5 6.5 6.5 6.5 6.5 6.5 6.5 7.2 7.2 7.2 7.4 7.6 7.7 6.6 4.3 3.2 2.2 1.4 1.3 0.6 0.2 -0.8 -2.3 -3.2 -3.0 -2.2 -1.2 -0.6 -1.8 -2.2 -3.1 -3.6 -3.8 -3.8 -3.4 -2.2
6.5 6.5 6.5 6.5 6.5 6.5 6.5 6.5 6.5 6.5 6.5 6.5 6.5 6.5 6.5 7.0 7.1 7.4 7.4 7.7 7.8 7.9 7.1 4.4 3.0 1.5 0.8 -0.0 -0.5 -1.0 -1.7 -2.5 -2.3 -2.4 -1.5 -1.5 -1.7 -2.5 -3.0 -3.4 -4.0 -4.2 -4.1 -3.8
6.5 6.5 6.5 6.5 6.5 6.5 6.5 6.5 6.5 6.5 6.5 6.5 6.5 6.5 6.5 6.7 7.3 7.6 7.7 7.9 8.0 8.0 7.8 5.1 3.2 1.9 0.4 -0.1 -0.8 -1.1 -1.8 -2.2 -2.7 -2.2 -1.5 -0.7 -1.0 -1.5 -1.7 -2.3 -3.1 -4.1 -4.2 -4.2
6.5 6.6 6.5 6.5 6.5 6.5 6.5 6.5 6.5 6.5 6.5 6.5 6.5 6.5 6.5 6.5 6.5 7.0 7.6 7.8 7.9 8.0 7.6 5.9 4.6 3.2 1.5 -0.3 -0.4 -1.1 -1.6 -2.1 -2.6 -2.5 -1.7 -1.9 -1.7 -1.9 -2.5 -2.4 -3.1 -3.7 -4.4 -4.1
6.5 6.5 6.5 6.5 6.5 6.5 6.5 6.5 6.5 6.5 6.5 6.5 6.5 6.5 6.5 6.5 6.5 6.5 7.3 7.7 8.0 8.2 8.1 6.9 5.0 3.6 2.6 1.4 0.2 -0.7 -1.0 -1.9 -2.5 -2.1 -1.8 -1.6 -1.9 -2.4 -2.3 -2.3 -1.9 -2.4 -3.0 -3.5
6.5 6.9 6.5 6.5 6.5 6.5 6.5 6.5 6.5 6.5 6.5 6.5 6.5 6.5 6.5 6.5 6.5 6.5 7.2 7.7 8.0 8.2 8.2 6.5 4.9 3.8 2.8 2.6 1.5 0.4 -0.4 -1.5 -1.9 -1.9 -1.8 -1.7 -1.6 -1.6 -1.4 -1.3 -1.1 -1.0 -1.3 -1.7
6.5 6.5 6.5 6.7 6.5 6.5 6.5 6.5 6.5 6.5 6.5 6.5 6.5 6.5 6.5 6.5 6.5 6.5 6.7 7.5 8.0 8.2 8.2 6.9 5.7 4.7 3.7 2.8 2.5 1.6 0.7 -0.9 -0.7 -0.9 -1.3 -0.9 -0.6 -0.3 -0.2 -0.2 0.2 0.6 0.3 -0.4
6.5 6.5 6.5 6.5 6.5 6.5 6.5 6.5 6.5 6.5 6.5 6.5 6.5 6.5 6.5 6.5 7.0 7.2 7.5 7.8 8.0 8.1 8.3 7.6 5.6 5.1 4.1 2.8 2.1 1.7 1.1 0.0 -0.3 -0.2 -0.6 -0.9 -0.4 -0.1 -0.3 -0.5 0.1 -0.3 0.2 -0.9
6.5 6.5 6.5 6.5 6.5 6.5 6.5 6.5 6.5 6.5 6.5 6.5 6.5 6.5 6.5 6.5 6.5 7.0 7.3 7.7 7.8 8.1 8.2 7.5 5.0 4.1 3.3 2.5 1.6 1.4 1.0 0.2 -0.3 -0.3 -0.5 -0.9 -1.1 -0.8 -0.5 -0.8 -0.7 -0.7 -1.0 -1.1
6.5 6.5 6.5 6.5 6.6 6.6 6.5 6.5 6.5 6.5 6.5 6.5 6.5 6.5 6.5 6.5 6.5 6.5 6.8 7.3 7.8 8.1 8.2 7.5 5.3 4.0 3.2 2.2 1.5 0.9 0.6 0.0 -0.3 -0.5 -0.6 -1.0 -1.5 -1.7 -1.4 -1.2 -1.2 -1.3 -1.3 -1.2
6.5 6.5 6.5 6.5 6.5 6.5 6.5 6.5 6.5 6.5 6.5 6.5 6.5 6.5 6.5 6.5 6.5 6.5 7.0 7.5 7.8 8.0 8.1 7.8 5.1 3.6 2.7 2.0 1.6 1.1 0.7 0.2 -0.3 -0.5 -0.8 -1.0 -1.4 -1.8 -1.9 -1.8 -2.1 -2.2 -2.1 -2.1
6.5 6.5 6.5 6.5 6.5 6.5 6.5 6.5 6.5 6.5 6.5 6.5 6.5 6.5 6.5 6.5 6.6 7.1 7.2 7.6 8.0 8.1 8.1 6.7 4.8 3.6 3.1 2.5 1.9 1.3 0.7 0.1 -0.7 -1.0 -0.9 -1.1 -1.4 -1.6 -1.7 -1.9 -2.2 -2.3 -2.3 -2.3
6.5 6.5 6.5 6.5 6.5 6.5 6.5 6.5 6.5 6.5 6.5 6.5 6.5 6.5 6.5 6.7 6.7 7.2 7.2 7.6 7.9 8.0 8.1 6.7 4.9 4.0 3.0 2.0 1.2 0.6 0.1 -0.5 -1.0 -1.0 -0.8 -0.9 -1.2 -1.5 -1.8 -2.2 -2.2 -2.0 -2.1 -1.9
6.7 6.5 6.5 6.5 6.5 6.5 6.5 6.5 6.5 6.5 6.5 6.5 6.5 6.5 6.5 6.5 6.5 6.9 7.3 7.6 7.7 7.6 6.3 4.6 3.7 2.6 1.7 0.8 0.1 -0.5 -0.9 -1.6 -1.6 -1.6 -1.3 -1.4 -1.7 -2.1 -2.2 -2.4 -2.4 -2.5 -2.5 -1.9
6.5 6.5 6.5 6.5 6.5 6.5 6.5 6.5 6.5 6.5 6.5 6.5 6.5 6.5 6.5 6.5 6.5 6.9 7.4 7.6 7.5 7.6 5.7 4.6 3.3 1.9 1.0 0.2 -0.3 -0.7 -1.1 -1.6 -2.1 -2.0 -1.8 -1.7 -2.3 -2.6 -2.9 -2.2 -2.3 -2.5 -2.2 -1.6
6.5 6.5 6.5 6.5 6.5 6.5 6.5 6.5 6.5 6.5 6.5 6.5 6.5 6.5 6.5 6.9 7.2 7.1 7.2 7.6 7.4 6.8 5.6 4.4 3.4 2.3 1.5 1.0 0.6 0.4 -0.2 -1.2 -2.1 -1.9 -1.8 -2.0 -1.7 -1.9 -1.6 -1.2 -1.5 -1.2 -1.1 -1.1
6.5 6.5 6.5 6.5 6.5 6.5 6.5 6.5 6.5 6.5 6.5 6.5 6.5 6.5 6.5 6.5 6.7 7.0 7.4 7.5 7.3 6.1 4.3 3.6 3.1 2.6 1.9 1.1 0.9 0.2 -0.4 -1.5 -1.6 -1.6 -1.1 -1.0 -1.0 -0.7 -0.2 -0.2 -0.0 0.4 0.9 0.9
6.5 6.5 6.5 6.5 6.5 6.5 6.5 6.5 6.5 6.5 6.5 6.5 6.5 6.5 6.6 6.7 7.1 7.5 7.8 7.1 5.4 4.5 4.1 4.7 3.6 2.1 1.2 0.1 -0.9 -1.4 -1.9 -1.2 -1.2 -1.0 -0.4 -0.2 -0.2 0.4 1.2 1.5 1.9 2.4 2.7 2.5
6.5 6.5 6.5 6.5 6.5 6.5 6.5 6.5 6.5 6.5 6.5 6.5 6.5 6.5 6.9 6.9 6.7 6.3 6.3 6.5 5.5 4.7 4.0 4.1 2.2 1.0 -0.5 -0.8 -1.5 -2.0 -1.5 -0.9 -1.6 -0.9 0.4 1.1 1.4 1.7 2.3 2.5 3.0 3.5 3.5 3.8
6.5 6.5 6.5 6.5 6.5 6.5 6.5 6.5 6.9 6.6 6.5 6.6 6.7 6.6 6.7 6.9 6.5 6.5 3.7 2.9 2.3 2.5 2.4 1.2 0.4 -0.5 -1.1 -0.9 -1.9 -1.7 -0.3 0.2 0.7 1.6 2.2 2.7 2.9 2.7 3.0 3.7 3.9 4.3 4.4 4.1
6.5 6.5 6.5 6.5 6.5 6.5 6.5 6.6 7.0 6.5 6.5 6.9 7.0 7.0 6.9 6.5 6.3 4.7 3.0 2.4 2.4 1.3 1.1 0.9 0.6 1.0 0.7 0.2 -0.5 0.4 2.0 2.9 3.5 3.4 3.4 3.6 4.0 4.2 4.4 4.5 4.5 4.8 4.8 5.2
6.5 6.5 6.5 6.5 6.5 6.5 6.9 6.6 6.5 6.7 7.1 7.2 7.0 4.4 3.6 4.9 4.2 3.5 3.0 2.5 2.2 1.6 1.3 1.3 1.7 1.8 1.8 1.2 1.0 2.3 3.9 4.6 4.1 3.9 4.0 4.3 4.6 4.8 4.9 5.3 5.5 5.8 6.1 6.1
6.5 6.5 6.5 6.5 6.5 6.7 7.2 7.0 5.4 4.7 7.2 6.9 3.9 5.1 3.7 5.2 4.4 4.0 3.2 2.8 2.6 2.8 2.7 2.4 2.5 2.7 2.9 2.8 2.9 3.7 4.8 4.3 4.2 4.2 4.3 4.6 4.8 5.0 5.2 5.7 6.2 6.7 7.0 7.0
6.5 6.8 6.5 6.5 6.5 6.7 7.1 5.4 4.2 5.7 4.6 4.1 3.6 5.2 4.1 3.2 3.4 2.9 3.0 2.9 3.0 3.0 3.1 2.8 3.1 3.7 4.3 4.0 3.6 3.9 4.1 4.3 4.1 4.3 4.6 4.9 5.1 5.5 6.3 6.8 7.0 6.9 6.9 7.3
6.7 6.6 6.5 6.5 6.6 7.0 6.5 5.6 3.9 2.7 2.1 1.8 3.1 3.0 2.5 2.6 3.3 3.0 3.2 3.3 3.0 3.1 2.8 2.8 2.9 3.2 3.5 3.4 3.7 4.0 3.8 4.0 4.0 4.5 4.8 5.0 5.5 5.7 5.9 6.3 6.7 7.1 7.8 8.2
6.9 6.5 6.5 6.5 6.7 6.8 6.8 4.4 4.4 2.6 2.7 2.9 2.5 3.3 3.9 3.0 2.7 3.2 2.6 2.5 2.7 2.6 2.5 2.7 2.9 3.2 3.5 3.5 4.1 4.6 4.8 4.9 5.0 5.4 6.3 7.0 7.5 7.4 8.0 8.6 8.2 7.5 9.1 9.4
Wind_Speed
13 11 18 23 20 8 14 14 12 5 5 7 6 10 12 10 8 9 8 7 6 5 5 6 7 7 8 11 13 13 12 13 10 4 3 4 6 7 14 17 19 19 18 18
7 19 18 15 12 9 14 15 8 6 6 4 9 9 10 11 10 10 10 9 8 7 6 6 7 9 11 11 12 12 12 11 11 8 5 4 5 10 13 14 19 20 20 20
15 8 12 15 15 12 12 18 13 8 9 3 10 5 10 12 10 9 9 8 8 8 7 6 7 8 9 10 11 11 10 11 13 11 6 4 6 6 7 10 14 19 19 20
12 5 18 15 20 17 16 12 14 17 15 9 9 9 10 16 15 15 15 13 11 10 8 7 6 7 9 8 9 10 10 10 14 13 8 10 7 5 6 6 12 15 20 21
11 16 18 20 24 20 11 13 15 15 14 5 8 6 7 12 15 22 21 17 14 11 10 9 7 7 8 8 8 8 10 11 14 15 11 7 9 7 6 7 8 13 16 20
10 2 15 18 16 17 18 12 10 5 6 9 16 12 16 10 13 18 20 19 17 14 11 10 8 8 7 7 8 8 10 11 13 14 14 11 11 9 7 8 7 7 11 14
12 8 5 7 11 15 14 14 4 6 6 10 8 10 17 9 7 9 25 22 19 15 13 11 10 8 7 7 7 8 9 10 10 11 11 10 10 10 10 8 7 7 7 8
12 10 14 13 12 12 24 22 8 13 9 12 7 9 5 3 0 3 17 20 19 17 13 12 10 8 8 8 7 8 8 9 9 10 10 11 11 8 7 9 7 6 6 10
9 13 8 16 8 16 15 20 21 9 2 8 10 4 4 5 5 11 18 21 20 17 15 13 11 9 8 7 7 7 8 8 8 8 8 9 10 10 7 10 9 9 10 9
3 5 4 9 5 12 12 17 13 9 7 12 6 10 10 13 17 17 19 21 19 17 16 13 11 10 8 7 7 7 7 7 7 7 7 7 9 9 9 9 9 9 9 10
8 7 2 5 15 18 8 15 13 12 14 12 15 9 4 1 19 20 19 19 18 17 15 13 11 9 8 7 6 6 6 6 6 6 6 6 6 7 8 8 8 8 8 9
12 4 8 12 3 4 6 20 22 10 17 18 16 11 2 2 14 20 20 19 18 17 15 13 12 10 9 7 6 6 5 5 4 4 4 4 5 5 6 6 7 7 7 8
3 5 4 3 3 2 6 6 4 17 3 16 12 6 2 9 15 17 21 20 18 17 15 13 11 9 8 7 6 5 4 4 3 3 3 3 3 3 4 5 5 6 6 7
5 3 7 10 3 5 11 15 10 10 10 12 17 7 7 13 18 18 19 19 18 17 15 12 10 8 7 5 5 4 3 2 2 2 2 2 2 2 3 3 4 4 5 5
4 5 3 3 2 1 2 14 19 14 14 13 9 11 10 18 19 18 18 18 18 16 14 12 10 8 7 6 4 3 3 2 1 0 1 0 1 2 2 3 3 3 4 4
1 3 2 3 1 5 4 8 13 23 23 10 3 3 1 15 17 17 19 19 18 16 14 12 11 9 7 6 5 4 3 2 1 2 2 2 3 3 3 4 4 5 5 5
3 2 3 5 4 3 7 13 14 8 5 7 12 5 17 19 18 19 18 17 17 16 14 12 10 8 6 5 4 4 3 1 2 3 3 3 3 4 4 5 5 5 6 7
4 5 1 1 6 6 1 3 4 2 3 5 7 15 16 16 14 15 14 16 15 15 13 11 8 6 5 4 2 1 1 2 3 4 5 5 4 5 6 6 7 7 7 7
7 4 4 4 6 3 1 1 2 6 5 5 11 14 17 19 15 7 7 11 13 12 11 9 6 5 5 3 2 2 3 3 3 5 6 6 6 7 7 7 8 7 8 8
3 3 3 4 4 7 3 1 2 3 5 8 12 18 20 18 9 7 8 13 12 11 9 8 6 4 3 3 3 2 3 4 6 6 6 6 6 7 8 8 9 9 9 10
4 3 9 6 4 1 1 2 3 5 2 8 13 15 16 5 4 16 13 13 11 10 8 6 4 3 2 2 3 3 5 6 6 6 7 7 7 8 9 10 10 9 10 10
4 6 4 2 3 7 4 0 2 4 6 11 12 10 15 17 18 17 14 13 11 9 7 5 4 1 1 3 4 4 5 4 5 6 7 8 8 7 8 10 10 11 11 12
3 2 1 3 2 2 4 3 2 2 13 8 13 13 18 18 18 15 12 11 9 8 6 4 3 2 2 2 3 4 4 5 6 7 8 8 9 8 9 9 10 9 10 9
2 1 3 3 4 4 5 4 2 4 11 14 15 15 15 18 15 13 11 9 7 6 5 4 3 2 2 3 3 4 6 6 6 8 8 8 9 10 9 7 7 8 8 9
1 3 6 4 2 8 8 6 10 13 13 14 13 14 16 16 14 13 10 8 6 6 5 4 4 4 5 6 6 7 7 7 8 8 8 9 8 9 9 8 8 8 10 12
1 2 2 2 7 3 9 7 10 14 13 14 17 15 12 13 13 12 9 7 6 6 5 5 4 5 6 6 7 6 6 6 6 7 6 6 7 7 7 8 9 16 19 21
Wind_Direction
187 186 200 196 202 249 204 194 167 140 148 159 199 162 179 175 179 181 175 164 147 122 99 68 55 51 52 47 43 33 34 25 24 17 15 52 55 52 52 47 41 36 32 32
175 214 209 201 190 169 185 174 158 119 159 213 174 178 178 191 203 197 188 180 170 157 130 90 64 54 47 45 45 41 36 32 30 29 25 53 79 65 59 52 45 37 35 33
200 213 175 182 189 176 193 196 178 170 150 51 155 209 205 210 208 203 200 191 181 170 143 109 75 64 60 49 44 46 40 40 34 35 49 95 94 67 52 43 42 37 37 37
224 187 184 192 200 200 206 218 173 145 167 210 211 228 195 191 206 210 199 193 182 166 149 130 109 81 69 59 56 54 50 46 43 41 58 66 64 75 52 48 46 43 39 38
201 186 190 200 204 198 218 155 164 175 203 198 196 247 148 172 214 212 202 191 180 169 155 139 118 95 79 74 64 59 61 56 52 54 55 68 74 69 59 55 50 44 41 39
220 284 192 203 213 194 135 110 100 141 204 236 216 213 232 188 205 201 193 187 176 166 153 139 124 113 96 82 78 69 66 58 58 59 62 65 69 68 65 55 54 48 45 39
201 193 187 159 138 153 166 164 160 198 208 235 215 215 240 175 184 205 182 178 171 164 157 149 141 127 110 94 82 77 71 66 62 65 63 64 68 67 64 56 50 50 44 37
196 209 187 187 192 182 196 192 194 214 211 213 165 225 219 102 49 214 168 167 165 162 158 151 142 129 116 103 92 86 79 76 67 65 64 62 61 62 61 56 56 52 46 40
209 228 192 179 164 162 196 215 214 250 351 242 206 216 191 154 154 151 161 166 165 162 155 151 144 134 124 111 96 92 89 81 72 68 68 64 61 62 61 57 54 51 44 34
232 250 182 177 175 207 211 189 204 212 207 227 200 240 234 204 189 170 171 172 164 156 152 147 143 137 125 114 107 98 90 84 78 74 67 67 63 59 57 55 51 45 39 33
194 211 156 170 206 193 182 199 208 219 228 236 248 237 27 252 184 175 172 169 162 158 154 149 142 136 131 123 115 107 97 91 80 72 71 70 64 58 56 54 46 37 35 27
191 187 210 203 58 351 257 213 208 215 214 231 254 255 21 258 172 167 166 163 162 159 153 149 146 144 141 133 125 114 107 97 83 75 73 67 62 57 53 48 40 34 31 27
186 207 169 173 266 238 217 196 251 229 257 221 216 213 47 123 148 163 162 163 159 152 148 146 147 148 142 137 132 123 111 101 84 71 69 64 54 50 45 40 31 28 20 18
349 263 231 233 222 144 198 204 203 206 217 221 231 219 175 163 162 163 163 159 154 153 152 150 148 146 144 141 141 136 128 110 101 71 53 59 39 19 4 358 5 6 359 356
201 241 285 300 3 152 271 199 196 204 214 213 225 208 189 179 167 163 154 152 152 152 151 153 152 150 152 152 151 153 145 141 114 68 299 314 306 291 294 288 297 314 318 324
285 219 168 255 216 273 229 233 221 211 222 243 142 210 121 143 143 151 155 154 152 152 151 149 146 147 155 158 159 167 158 165 210 264 280 287 280 276 270 275 279 289 300 303
200 212 183 249 144 144 273 222 201 197 190 230 208 135 147 149 160 162 156 154 149 149 148 148 147 148 150 160 160 170 161 184 251 271 277 274 282 288 290 289 290 287 287 293
207 190 198 139 168 217 47 2 344 167 103 113 89 136 147 141 135 140 148 145 144 147 147 149 147 144 138 142 156 139 193 253 266 281 288 287 281 282 284 277 274 279 283 285
225 168 176 200 215 335 157 180 189 207 182 160 135 122 114 115 108 76 101 136 141 145 148 149 135 125 131 151 168 206 241 263 275 275 275 275 267 269 274 276 281 281 283 282
208 244 235 172 228 217 76 91 352 311 243 158 144 142 140 148 150 146 122 113 107 115 124 130 132 125 156 174 180 209 266 274 275 274 273 273 274 278 283 284 284 283 278 279
176 181 214 205 224 234 74 343 315 190 109 136 144 141 147 134 67 121 118 107 108 117 121 122 131 145 160 160 181 246 266 275 290 291 290 285 280 279 282 285 284 285 284 282
197 179 187 147 210 235 11 104 221 103 101 121 106 93 96 110 111 116 118 120 124 123 126 131 132 150 203 205 212 258 272 298 292 291 292 293 292 289 288 289 288 287 284 282
218 349 81 358 33 23 18 30 82 309 126 105 103 113 121 117 115 118 118 117 115 119 123 130 141 168 202 212 233 284 326 312 308 302 297 298 298 293 289 289 288 287 284 281
138 212 92 192 43 39 51 79 54 128 108 105 107 116 115 114 115 115 115 116 117 124 126 137 140 98 36 12 348 327 324 322 316 309 309 310 307 304 305 303 294 289 289 288
18 170 123 88 97 115 62 76 114 99 95 95 93 104 109 112 111 117 117 116 113 107 91 66 39 16 358 351 346 339 333 331 321 318 315 313 311 309 306 299 296 292 286 278
259 125 200 122 159 102 131 140 133 110 108 107 112 106 101 109 113 114 104 98 90 73 53 39 15 356 351 343 337 337 332 320 310 306 305 308 308 307 301 301 302 297 293 295